Showing default

EGYPTSAT A, 44047

Orbit data source: Space-Track

EGYPTSAT A, 44047 is a payload satellite owned by EgSA (EG) in SSO that was launched on Thu, 21 Feb 2019 UTC via a SOYUZ-2-1B launch vehicle from the Tyuratam Missile And Space Complex (TTMTR). Payload-class satellites include a variety of spacecraft equipped with specific instruments for various scientific and technological missions. These include communications satellites like Starlink; space stations such as the ISS; scientific satellites like the Hubble; Earth observation satellites from companies like Planet Labs, Umbra, and HawkEye 360; GPS; miniature CubeSats for education and research; and military/defense satellites.

Loading next visibility...
Identifier
44047, 2019-008A
Orbit
SSO
Country
Flag of UnknownUnknown / EGYP
Related business
Manufacturer
Yuzhnoe
Mission
Operational Civil Imaging
Bus & Motor
EGYPTSAT, Unknown motor
Mass
~1,050 kg wet, ~1,050 kg dry
Launch date (UTC)
2019-02-21 (7 years ago)
Launch vehicle
SOYUZ-2-1B
Launch site
Tyuratam Missile And Space Complex (TTMTR)
Object type
Payload
Rocket body
Debris
Shape & HBR
Box + 4 Pan + 1 Ant, 1.0 m
Radar Cross Section
0.867 m², Large (>1 m²)

Expand to show TLE details & history
Last TLE update: 11 hours ago

TLE from 11 hours ago
0 EGYPTSAT A
1 44047U 19008A   25261.29836274  .00000606  00000-0  10358-3 0  9996
2 44047  98.0108 325.0744 0001280 109.2845 250.8501 14.72375230353233
Epoch: 2025-09-18T07:09Z
TLE epoch observation values (Epoch: 2025-09-18T07:09:38.54Z)
Latitude
-0.00003°
Longitude
-139.79814°
Altitude
656.799 km
Speed
7.529 km/s
True Right ascension
21h 40m 17s
True Declination
0° 00' 00"
Sunlit
Object was in full shadow at epoch
Visualization orbit readout
Latitude
Unknown
Longitude
Unknown
Altitude
Unknown
Speed
Unknown
Apparent Right ascension
Unknown
Apparent Declination
Unknown
Sunlit
N/A
Visualization observer readout
Local Sidereal Time
10:43:02
Azimuth
Unknown
Elevation
Unknown
Doppler factor
Unknown
Orbital elements
Apogee altitude
651.451 km
Perigee altitude
649.652 km
Semi-major axis
7,028.689 km
Eccentricity
0.00013
Inclination
98.0108°
RAAN
325.0744°
Arg. of periapsis
109.2845°
True anomaly
250.83624°
Mean anomaly
250.8501°
Eccentric anomaly
250.84317°
Mean motion
3.68325 °/min
Orbital period
97.74 mins
BSTAR
0.00010358
Loading maneuver chart data...
Computing Atmospheric mass density...
Loading historical data...
Loading historical data...
Loading historical data...
Loading historical data...
Loading historical data...
Loading historical data...
Loading historical data...
Other satellites on launch #8 in the year 2019 (2019-02-21 UTC)

Documentation

Showing up to 5 results
|